GW1942 Weather Reports


Display with metric or nautical units.
time (UTC)temp
F
wind
direction
speed
MPH
gust
MPH
rain 1hr
in
rain 24hr
in
rain mn
in
humidity
%
barometer
mb
20260509041558 56 86 2.0 6.0 0.00 0.00 0.00 54 1013.3
20260509040125 56 122 2.0 6.0 0.00 0.00 0.00 54 1013.0
20260509034600 57 75 3.0 7.0 0.00 0.00 0.00 52 1013.0
20260509033055 58 66 4.0 9.0 0.00 0.00 0.00 50 1012.6
20260509031558 58 98 2.0 5.0 0.00 0.00 0.00 50 1012.3
20260509030058 59 93 2.0 6.0 0.00 0.00 0.00 49 1012.2
20260509024555 61 65 2.0 4.0 0.00 0.00 0.00 44 1012.0
20260509023052 61 60 1.0 3.0 0.00 0.00 0.00 48 1011.9
20260509021552 63 87 0.0 3.0 0.00 0.00 0.00 44 1011.7
20260509020052 63 13 0.0 2.0 0.00 0.00 0.00 42 1011.5
20260509014551 63 209 0.0 0.0 0.00 0.00 0.00 47 1011.3
20260509013052 65 209 0.0 2.0 0.00 0.00 0.00 42 1011.4
20260509011558 66 313 0.0 2.0 0.00 0.00 0.00 32 1011.2
20260509010050 66 353 0.0 3.0 0.00 0.00 0.00 32 1011.3
20260509004605 66 285 1.0 4.0 0.00 0.00 0.00 33 1011.2
20260509003049 67 266 0.0 4.0 0.00 0.00 0.00 31 1011.2
20260509001548 67 162 2.0 6.0 0.00 0.00 0.00 31 1011.1
20260509000048 67 215 4.0 8.0 0.00 0.00 0.00 31 1010.9
20260508234545 67 202 1.0 6.0 0.00 0.00 0.00 34 1011.0
20260508233045 68 127 2.0 5.0 0.00 0.00 0.00 32 1011.1
20260508231545 67 195 1.0 6.0 0.00 0.00 0.00 34 1011.0
20260508230044 67 136 3.0 6.0 0.00 0.00 0.00 37 1010.8
20260508224545 68 155 2.0 7.0 0.00 0.00 0.00 34 1010.8
20260508223049 69 209 0.0 10.0 0.00 0.00 0.00 35 1010.6
20260508221542 69 146 3.0 9.0 0.00 0.00 0.00 33 1010.6
20260508220041 70 186 2.0 9.0 0.00 0.00 0.00 34 1010.6
20260508214548 71 199 3.0 11.0 0.00 0.00 0.00 33 1010.6
20260508213040 72 209 3.0 9.0 0.00 0.00 0.00 32 1010.4
20260508211539 73 217 2.0 12.0 0.00 0.00 0.00 32 1010.5
20260508210039 74 248 3.0 8.0 0.00 0.00 0.00 29 1010.4
20260508204542 74 309 4.0 12.0 0.00 0.00 0.00 28 1010.4
20260508203035 74 316 4.0 11.0 0.00 0.00 0.00 29 1010.5
20260508201535 74 264 4.0 8.0 0.00 0.00 0.00 27 1010.5
20260508200030 74 44 1.0 5.0 0.00 0.00 0.00 32 1010.5
20260508194528 73 171 2.0 6.0 0.00 0.00 0.00 34 1010.5
20260508193028 74 295 0.0 2.0 0.00 0.00 0.00 39 1010.6
20260508191528 72 289 1.0 7.0 0.00 0.00 0.00 36 1010.8
20260508190027 72 96 1.0 4.0 0.00 0.00 0.00 37 1010.9
20260508184520 72 15 1.0 3.0 0.00 0.00 0.00 38 1011.1
20260508183017 70 40 2.0 5.0 0.00 0.00 0.00 40 1011.2
20260508181517 70 101 0.0 3.0 0.00 0.00 0.00 41 1011.4
20260508180017 68 56 1.0 2.0 0.00 0.00 0.00 45 1011.5
20260508174511 67 124 1.0 3.0 0.00 0.00 0.00 51 1011.9
20260508173008 66 275 0.0 3.0 0.00 0.00 0.00 52 1012.1
20260508171501 64 257 0.0 3.0 0.00 0.00 0.00 54 1012.3
20260508170100 64 280 0.0 3.0 0.00 0.00 0.00 58 1012.3
20260508164555 62 280 0.0 2.0 0.00 0.00 0.00 61 1012.6
20260508163051 60 41 0.0 4.0 0.00 0.00 0.00 63 1012.8
20260508161549 58 70 0.0 3.0 0.00 0.00 0.00 65 1012.9
20260508160105 58 86 0.0 1.0 0.00 0.00 0.00 66 1013.1
20260508154543 55 77 0.0 2.0 0.00 0.00 0.00 72 1013.2
20260508153045 54 68 0.0 1.0 0.00 0.00 0.00 73 1013.3
20260508151538 52 58 0.0 2.0 0.00 0.00 0.00 75 1013.5
20260508150037 50 82 0.0 1.0 0.00 0.00 0.00 80 1013.6
20260508144535 49 123 0.0 1.0 0.00 0.00 0.00 82 1013.7
20260508143042 47 253 0.0 1.0 0.00 0.00 0.00 86 1013.6
20260508141547 46 210 0.0 0.0 0.00 0.00 0.00 88 1013.7
20260508140033 44 286 0.0 1.0 0.00 0.00 0.00 90 1013.6
20260508134534 42 157 0.0 0.0 0.00 0.00 0.00 92 1013.6
20260508133030 41 211 0.0 1.0 0.00 0.00 0.00 92 1013.5
20260508131529 40 272 0.0 1.0 0.00 0.00 0.00 94 1013.5
20260508130028 39 203 0.0 1.0 0.00 0.00 0.00 93 1013.3
20260508124526 39 238 0.0 0.0 0.00 0.00 0.00 93 1013.1
20260508123025 39 238 0.0 1.0 0.00 0.00 0.00 92 1013.1
20260508121548 39 75 0.0 1.0 0.00 0.00 0.00 94 1012.9
20260508120022 39 139 0.0 1.0 0.00 0.00 0.00 92 1012.9
20260508114519 40 108 0.0 0.0 0.00 0.00 0.00 94 1013.0
20260508113018 40 121 0.0 1.0 0.00 0.00 0.00 94 1013.1
20260508111516 42 103 0.0 1.0 0.00 0.00 0.00 89 1012.8
20260508110015 40 95 0.0 1.0 0.00 0.00 0.00 91 1012.7
20260508104613 41 206 0.0 2.0 0.00 0.00 0.00 93 1012.6
20260508103015 40 113 0.0 1.0 0.00 0.00 0.00 91 1012.6
20260508101510 42 158 0.0 0.0 0.00 0.00 0.00 90 1012.6
20260508100007 41 158 0.0 0.0 0.00 0.00 0.00 92 1012.4
20260508094505 41 252 0.0 1.0 0.00 0.00 0.00 92 1012.3
20260508093001 42 190 0.0 1.0 0.00 0.00 0.00 86 1012.3
20260508091500 42 193 0.0 0.0 0.00 0.00 0.00 90 1012.2
20260508090059 43 194 0.0 0.0 0.00 0.00 0.00 89 1012.2
20260508084557 43 245 0.0 1.0 0.00 0.00 0.00 88 1012.0
20260508083137 43 162 0.0 2.0 0.00 0.00 0.00 87 1012.0
20260508081556 43 151 0.0 1.0 0.00 0.00 0.00 87 1011.8
20260508080059 45 204 0.0 2.0 0.00 0.00 0.00 84 1011.8
20260508074547 47 299 1.0 3.0 0.00 0.00 0.00 83 1011.9
20260508073050 46 161 0.0 1.0 0.00 0.00 0.00 81 1011.9
20260508071544 49 129 1.0 4.0 0.00 0.00 0.00 81 1011.8
20260508070044 47 97 0.0 0.0 0.00 0.00 0.00 84 1011.7
20260508064601 47 126 0.0 1.0 0.00 0.01 0.00 82 1011.5
20260508063038 48 139 0.0 1.0 0.00 0.01 0.00 80 1011.5
20260508061532 50 158 0.0 2.0 0.00 0.01 0.00 77 1011.4
20260508060028 51 155 0.0 3.0 0.00 0.01 0.00 75 1011.3
20260508054527 52 103 0.0 2.0 0.00 0.03 0.01 73 1011.2
20260508053027 53 70 1.0 3.0 0.00 0.03 0.01 71 1011.3
20260508051527 55 151 2.0 6.0 0.00 0.03 0.01 65 1011.2
20260508050025 56 86 1.0 9.0 0.00 0.03 0.01 63 1011.1
20260508044524 56 111 4.0 8.0 0.00 0.03 0.01 63 1011.0
20260508043024 56 96 5.0 9.0 0.00 0.03 0.01 63 1010.7